Regional Weather Roundup
Issued by NWS Sterling, VA

Home | Current Version | Previous Version | Graphics & Text | Print | Product List | Glossary On
Versions: 1 2 3 4 5 6 7 8 9 10 11 12 13 14 15 16 17 18 19 20 21 22 23 24 25 26 27 28
000
ASUS41 KLWX 241611
RWRLWX

REGIONAL WEATHER ROUNDUP
NATIONAL WEATHER SERVICE BALTIMORE MD/WASHINGTON DC
1200 PM EDT THU MAY 24 2018

Note: "FAIR" indicates few or no clouds below 12,000 feet
with no significant weather and/or obstructions to visibility.
 TC=TEMPERATURE CELSIUS

 * =Non NWS site. Station does not report precipitation (e.g. rain,
    snow, etc.), thunder, or fog.

DCZ001-MDZ009-015-VAZ040>042-051-053>054-241700-
WASHINGTON METRO

CITY           SKY/WX    TMP DP  RH WIND       PRES   REMARKS
WASHINGTON NAT FAIR      81  50  33 N8        30.19S
DULLES         FAIR      78  50  37 NE7       30.20S
ANDREWS AFB    FAIR      78  51  38 N8        30.19R
FT BELVOIR     FAIR      80  49  32 CALM      30.19S
QUANTICO       FAIR      77  62  59 E5        30.20S
COLLEGE PARK*  FAIR      78  47  33 NE5       30.19S
LEESBURG*      FAIR      79  48  34 NE8       30.22F
MANASSAS*      FAIR      80  52  37 N12G18    30.21R
GAITHERSBURG*  FAIR      78  50  37 VRB5      30.22S

$$

MDZ006>007-011-014-241700-
BALTIMORE METRO

CITY           SKY/WX    TMP DP  RH WIND       PRES   REMARKS
BWI AIRPORT    FAIR      80  47  31 NE9       30.18S
MD SCIENCE CTR   N/A     83  42  23 MISG      30.20F
MARTIN STATE   SUNNY     81  45  28 N10       30.19F
ANNAPOLIS        N/A    N/A N/A N/A MISG      30.18S
FORT MEADE*    FAIR      79  48  34 E8        30.21S

$$

MDZ012-015-019>023-241700-
MARYLAND EASTERN SHORE

CITY           SKY/WX    TMP DP  RH WIND       PRES   REMARKS
OCEAN CITY     FAIR      78  58  49 N7        30.17R
SALISBURY      FAIR      80  54  40 NE6       30.16S
BAY BRIDGE AP* FAIR      75  59  57 N6        30.19S
CAMBRIDGE*     SUNNY     77  55  47 CALM      30.18R
EASTON*        SUNNY     81  55  41 NE7       30.21S

$$

MDZ017>025-241700-
SOUTHERN MARYLAND

CITY           SKY/WX    TMP DP  RH WIND       PRES   REMARKS
PATUXENT RIVER FAIR      80  57  45 N8        30.18R
ST INIGOES     FAIR      79  53  40 VRB6      30.17S
LEONARDTOWN*   FAIR      75  52  43 N7        30.20S

$$

MDZ003>005-241700-
NORTH CENTRAL MARYLAND

CITY           SKY/WX    TMP DP  RH WIND       PRES   REMARKS
FREDERICK*     SUNNY     81  43  26 NE8       30.24R
HAGERSTOWN APT FAIR      78  48  34 VRB3      30.22S
WESTMINSTER*   FAIR      77  46  33 N3        30.21F

$$

MDZ501>502-241700-
WESTERN MARYLAND

CITY           SKY/WX    TMP DP  RH WIND       PRES   REMARKS
OAKLAND*       FAIR      68  45  42 E7        30.30S
CUMBERLAND*    FAIR      75  52  43 CALM      30.27F

$$

VAZ025>031-241700-
SHENANDOAH VALLEY

CITY           SKY/WX    TMP DP  RH WIND       PRES   REMARKS
WINCHESTER*    FAIR      75  45  33 E5        30.25S
FRONT ROYAL*   FAIR      77  55  47 CALM      30.23S
LURAY*         FAIR      77  48  36 N8        30.23F
NEW MARKET*    FAIR      75  44  33 NE12G18   30.22F
STAUNTON*      FAIR      74  51  44 N6        30.26F
WAYNESBORO*    FAIR      73  56  53 CALM      30.26S

$$

WVZ021-048>050-054>055-241700-
EASTERN WEST VIRGINIA PANHANDLE

CITY           SKY/WX    TMP DP  RH WIND       PRES   REMARKS
MARTINSBURG    FAIR      78  50  37 N5        30.21F
PETERSBURG*    FAIR      73  56  54 CALM      30.25S

$$

VAZ036>039-050-241700-
CENTRAL FOOTHILLS

CITY           SKY/WX    TMP DP  RH WIND       PRES   REMARKS
CHARLOTTESVILL FAIR      81  49  32 NE10      30.22R
CULPEPER*      FAIR      80  51  36 N8        30.22S
ORANGE*        FAIR      77  54  44 N7        30.21S
GORDONSVILLE*  FAIR      78  55  44 E8        30.21S
WARRENTON*     FAIR      80  43  26 N9        30.21S

$$

VAZ055>057-241700-
NORTH AND CENTRAL PIEDMONT

CITY           SKY/WX    TMP DP  RH WIND       PRES   REMARKS
FREDERICKSBRG* FAIR      79  53  40 N3        30.19S
STAFFORD*      FAIR      80  55  42 N5        30.24S

$$

NCZ024-NYZ072-PAZ021-071-VAZ022-071-241700-
OTHER REGIONAL OBSERVATIONS

CITY           SKY/WX    TMP DP  RH WIND       PRES   REMARKS
NEW YORK CITY  FAIR      78  38  23 CALM      30.16S
PHILADELPHIA   FAIR      79  42  26 N14       30.16F
PITTSBURGH     FAIR      75  52  44 SE6       30.25R
ROANOKE        FAIR      77  56  48 VRB5      30.25S
RICHMOND       FAIR      80  56  43 NE6       30.19R
RALEIGH        PTSUNNY   80  64  58 NE8       30.18F

$$

ANZ530>537-241700-
MARINE OBSERVATIONS

STATION/POSITION TIME  TEMP    WIND        PRES
                       AIR SEA DIR/SP/G
                 (UTC) (F)     (DEG/KT/KT) (MB)
THOMAS PT LIGHT  1600   71 69   10/  9/  9 1023.2R
BALT KEY BRIDGE  1548   77      30/  9/ 11 1022.0R
COVE POINT       1548   71     360/ 12/ 15 1022.8R
LEWISETTA        1548   76 74   60/  5/  7 1022.1R
SOLOMONS ISLAND  1548   74 72   20/  6/  8 1021.9R
PINEY POINT      1548          350/  7/  8   N/A

$$





USA.gov is the U.S. government's official web portal to all federal, state and local government web resources and services.